Flight Track Log - Related Links

Times and Time Zones

All times are in EDT time to prevent confusion due to time zone crossing. See the N8324T flight status page for this flight to view local times or setup timezone preferences in your user account.

Time Position Orientation Groundspeed Altitude Reporting Facility
EDT Latitude Longitude Course Direction KTS MPH feet Rate Location/Type
Tue 07:22:36 PM 37.2397 -93.3411 57° Northeast 127 146 3,100  Level Kansas City Center
Tue 07:23:38 PM 37.2586 -93.3053 56° Northeast 121 139 3,800 677 Climbing Kansas City Center
Tue 07:24:40 PM 37.2753 -93.2681 61° Northeast 121 139 4,500 726 Climbing Kansas City Center
Tue 07:25:42 PM 37.2953 -93.2231 61° Northeast 122 140 5,300 726 Climbing Kansas City Center
Tue 07:26:00 PM 37.3770 -93.1267 52° Northeast  Level FlightAware Approximate
Tue 07:26:44 PM 37.3158 -93.1839 57° Northeast 127 146 6,000  Level Kansas City Center
Tue 07:27:00 PM 37.4005 -93.0835 57° Northeast  Level FlightAware Approximate
Tue 07:27:46 PM 37.3381 -93.1447 54° Northeast 133 153 6,600  Level Kansas City Center
Tue 07:28:48 PM 37.3611 -93.1064 53° Northeast 136 157 7,000 194 Climbing Kansas City Center
Tue 07:29:50 PM 37.3861 -93.0603 56° Northeast 147 169 7,000  Level Kansas City Center
Tue 07:30:52 PM 37.4131 -93.0114 55° Northeast 160 184 7,000  Level Kansas City Center
Tue 07:31:54 PM 37.4425 -92.9519 58° Northeast 165 190 7,000  Level Kansas City Center
Tue 07:32:56 PM 37.4661 -92.9019 59° Northeast 165 190 7,000  Level Kansas City Center
Tue 07:33:58 PM 37.4953 -92.8547 52° Northeast 168 193 7,000  Level Kansas City Center
Tue 07:35:00 PM 37.5239 -92.8075 53° Northeast 169 194 7,000  Level Kansas City Center
Tue 07:36:02 PM 37.5497 -92.7594 56° Northeast 168 193 7,000  Level Kansas City Center
Tue 07:37:04 PM 37.5758 -92.7100 56° Northeast 167 192 7,000  Level Kansas City Center
Tue 07:38:06 PM 37.6072 -92.6506 56° Northeast 168 193 7,000  Level Kansas City Center
Tue 07:39:08 PM 37.6331 -92.6022 56° Northeast 168 193 7,000  Level Kansas City Center
Tue 07:40:11 PM 37.6594 -92.5547 55° Northeast 167 192 7,000  Level Kansas City Center
Tue 07:41:13 PM 37.6858 -92.5083 54° Northeast 164 189 7,000  Level Kansas City Center
Tue 07:42:15 PM 37.7119 -92.4619 55° Northeast 164 189 7,000  Level Kansas City Center
Tue 07:43:17 PM 37.7394 -92.4147 54° Northeast 165 190 7,000  Level Kansas City Center
Tue 07:44:19 PM 37.7686 -92.3561 58° Northeast 165 190 7,000  Level Kansas City Center
Tue 07:45:21 PM 37.7939 -92.3064 57° Northeast 168 193 7,000  Level Kansas City Center
Tue 07:46:23 PM 37.8167 -92.2575 59° Northeast 165 190 7,000  Level Kansas City Center
Tue 07:47:25 PM 37.8414 -92.2103 56° Northeast 164 189 7,000  Level Kansas City Center
Tue 07:48:27 PM 37.8708 -92.1661 50° Northeast 165 190 7,000  Level Kansas City Center
Tue 07:49:29 PM 37.9086 -92.1125 48° Northeast 168 193 7,000  Level Kansas City Center
Tue 07:50:31 PM 37.9375 -92.0669 51° Northeast 168 193 7,000  Level Kansas City Center
Tue 07:51:33 PM 37.9619 -92.0161 59° Northeast 168 193 7,000  Level Kansas City Center
Tue 07:52:35 PM 37.9881 -91.9672 56° Northeast 168 193 7,000  Level Kansas City Center
Tue 07:53:37 PM 38.0150 -91.9183 55° Northeast 168 193 7,000  Level Kansas City Center
Tue 07:54:39 PM 38.0428 -91.8681 55° Northeast 171 197 7,000  Level Kansas City Center
Tue 07:55:41 PM 38.0758 -91.8128 53° Northeast 168 193 7,000  Level Kansas City Center
Tue 07:56:43 PM 38.1028 -91.7653 54° Northeast 166 191 7,000  Level Kansas City Center
Tue 07:57:45 PM 38.1278 -91.7142 58° Northeast 169 194 7,000  Level Kansas City Center
Tue 07:58:47 PM 38.1533 -91.6650 57° Northeast 169 194 7,000  Level Kansas City Center
Tue 07:59:49 PM 38.1803 -91.6147 56° Northeast 171 197 7,000  Level Kansas City Center
Tue 08:00:51 PM 38.2061 -91.5653 56° Northeast 170 196 7,000  Level Kansas City Center
Tue 08:01:53 PM 38.2331 -91.5147 56° Northeast 171 197 7,000 -97 Level Kansas City Center
Tue 08:02:55 PM 38.2628 -91.4533 58° Northeast 170 196 6,800 -242 Descending Kansas City Center
Tue 08:03:57 PM 38.2886 -91.3994 59° Northeast 176 203 6,500 -290 Descending Kansas City Center
Tue 08:04:59 PM 38.3128 -91.3478 59° Northeast 178 205 6,200 -336 Descending Kansas City Center
Tue 08:06:02 PM 38.3400 -91.2958 56° Northeast 177 204 5,800 -384 Descending Kansas City Center
Tue 08:07:04 PM 38.3650 -91.2436 59° Northeast 174 200 5,400 -387 Descending Kansas City Center
Tue 08:08:06 PM 38.3964 -91.1825 57° Northeast 174 200 5,000 -195 Descending Kansas City Center
Tue 08:09:07 PM 38.4217 -91.1353 56° Northeast 166 191 5,000  Level Kansas City Center
Tue 08:10:09 PM 38.4464 -91.0881 56° Northeast 162 186 5,000 -97 Level Kansas City Center
Tue 08:11:11 PM 38.4708 -91.0397 57° Northeast 162 186 4,800 -339 Descending Kansas City Center
Tue 08:12:13 PM 38.4975 -90.9875 57° Northeast 173 199 4,300 -387 Descending Kansas City Center
Tue 08:13:15 PM 38.5244 -90.9358 56° Northeast 175 201 4,000 -145 Descending Kansas City Center
Tue 08:14:17 PM 38.5461 -90.8869 60° Northeast 164 189 4,000 -194 Level Kansas City Center
Tue 08:15:19 PM 38.5750 -90.8272 58° Northeast 165 190 3,600 -484 Descending Kansas City Center
Tue 08:16:21 PM 38.5997 -90.7742 59° Northeast 169 194 3,000 -484 Descending Kansas City Center
Tue 08:17:23 PM 38.6203 -90.7250 62° Northeast 166 191 2,600 -339 Descending Kansas City Center
Tue 08:18:25 PM 38.6317 -90.6769 73° East 153 176 2,300 -242 Descending Kansas City Center
Tue 08:19:27 PM 38.6406 -90.6325 76° East 141 162 2,100 -293 Descending Kansas City Center
Tue 08:20:28 PM 38.6497 -90.5950 73° East 126 145 1,700 -585 Descending Kansas City Center
Tue 08:21:30 PM 38.6647 -90.6169 311° West 110 127 900 -581 Descending Kansas City Center
Tue 08:22:32 PM 38.6606 -90.6439 259° West 99 114 500 -387 Descending Kansas City Center

Login

Don't have an account? Register now (free) for customized features, flight alerts, and more!